Ellensburg, WA

7:51 PM PST on December 14, 2017 (GMT -0800)
Bowers

Weather History for KELN - July, 2013

Change the Weather History Date:

Sunday, July 7, 2013

  Actual Average (KYKM) Record (KYKM)
Temperature  
Mean Temperature 75 °F -  
Max Temperature 93 °F 85 °F 103 °F (2017)
Min Temperature 57 °F 50 °F 34 °F (1971)
Cooling Degree Days 10    
Growing Degree Days 25 (Base 50)    
Moisture  
Dew Point 51 °F    
Average Humidity 48    
Maximum Humidity 78    
Minimum Humidity 16    
Precipitation  
Precipitation 0.01 in - - ()
Sea Level Pressure  
Sea Level Pressure 29.82 in    
Wind  
Wind Speed 8 mph (NNW)    
Max Wind Speed 22 mph    
Max Gust Speed 32 mph    
Visibility 10 miles    
Events Rain    
Averages and records for this station are not official NWS values.
T = Trace of Precipitation, MM = Missing Value Source: NWS Daily Summary

Daily Weather History Graph

Daily Weather History Graph

Search for Another Location

Airport or City:

Trip Planner

Search our weather history database for the weather conditions in past years. The results will help you decide how hot, cold, wet, or windy it might be!

Date:

Astronomy

Jul. 07, 2013 Rise Set
Actual Time 5:15 AM PDT 8:58 PM PDT
Civil Twilight 4:36 AM PDT 9:37 PM PDT
Nautical Twilight 3:43 AM PDT 10:29 PM PDT
Astronomical Twilight 2:29 AM PDT 11:43 PM PDT
Moon 5:00 AM PDT (7/7) 8:19 PM PDT (7/7)
Length of Visible Light 17h 01m
Length of Day
15h 43m
Waning Crescent, 0% of the Moon is Illuminated
Jul 7
Waning Crescent
Jul 8
New
Jul 15
First Quarter
Jul 22
Full
Jul 29
Last Quarter

Hourly Weather History & Observations

Time (PDT) Temp. Heat Index Dew Point Humidity Pressure Visibility Wind Dir Wind Speed Gust Speed Precip Events Conditions
12:53 AM 66.9 °F - 53.1 °F 61% 29.82 in 10.0 mi NNW 10.4 mph - N/A   Clear
1:53 AM 66.0 °F - 53.1 °F 63% 29.82 in 10.0 mi NW 10.4 mph - N/A   Clear
2:53 AM 64.0 °F - 53.1 °F 67% 29.83 in 10.0 mi NNW 6.9 mph - N/A   Clear
3:53 AM 57.9 °F - 51.1 °F 78% 29.83 in 10.0 mi North 4.6 mph - N/A   Clear
4:53 AM 57.9 °F - 51.1 °F 78% 29.84 in 10.0 mi Calm Calm - N/A   Clear
5:53 AM 57.0 °F - 50.0 °F 77% 29.86 in 10.0 mi NNE 3.5 mph - N/A   Clear
6:53 AM 63.0 °F - 53.1 °F 70% 29.87 in 10.0 mi ENE 3.5 mph - N/A   Clear
7:53 AM 68.0 °F - 53.1 °F 59% 29.87 in 10.0 mi Calm Calm - N/A   Clear
8:53 AM 73.9 °F - 54.0 °F 50% 29.86 in 10.0 mi Calm Calm - N/A   Clear
9:53 AM 79.0 °F - 53.1 °F 40% 29.85 in 10.0 mi Variable 3.5 mph - N/A   Clear
10:53 AM 82.9 °F - 48.0 °F 29% 29.83 in 10.0 mi Calm Calm - N/A   Clear
11:53 AM 87.1 °F - 48.0 °F 26% 29.82 in 10.0 mi Calm Calm - N/A   Clear
12:53 PM 89.1 °F - 44.1 °F 21% 29.81 in 10.0 mi Variable 6.9 mph - N/A   Clear
1:53 PM 93.0 °F - 44.1 °F 18% 29.78 in 10.0 mi East 9.2 mph 21.9 mph N/A   Clear
2:53 PM 93.0 °F - 41.0 °F 16% 29.76 in 10.0 mi Variable 3.5 mph - N/A   Clear
3:53 PM 89.1 °F - 41.0 °F 19% 29.76 in 10.0 mi Calm Calm - N/A   Scattered Clouds
4:53 PM 82.9 °F 81.8 °F 53.1 °F 36% 29.77 in 10.0 mi WSW 15.0 mph 21.9 mph N/A   Overcast
5:53 PM 80.1 °F 80.0 °F 54.0 °F 40% 29.78 in 10.0 mi NW 18.4 mph 24.2 mph 0.00 in Rain Light Rain
6:53 PM 77.0 °F - 51.1 °F 40% 29.79 in 10.0 mi NW 12.7 mph - 0.00 in   Overcast
7:53 PM 72.0 °F - 55.0 °F 55% 29.80 in 10.0 mi NW 19.6 mph 31.1 mph 0.01 in Rain Light Rain
8:53 PM 73.0 °F - 53.1 °F 49% 29.80 in 10.0 mi NW 21.9 mph 32.2 mph 0.00 in   Partly Cloudy
9:53 PM 71.1 °F - 53.1 °F 53% 29.81 in 10.0 mi NW 20.7 mph 31.1 mph N/A   Clear
10:53 PM 70.0 °F - 52.0 °F 53% 29.82 in 10.0 mi NW 21.9 mph 28.8 mph N/A   Overcast
11:53 PM 66.9 °F - 52.0 °F 59% 29.83 in 10.0 mi NW 17.3 mph 25.3 mph N/A   Clear